Regional Weather Roundup
Issued by NWS Bismarck, ND

Home | Current Version | Previous Version | Text Only | Print | Product List | Glossary On
Versions: 1 2 3 4 5 6 7 8 9 10 11 12 13 14 15 16 17 18 19 20 21 22 23 24 25 26 27 28 29 30 31 32 33 34 35 36 37 38 39 40 41 42 43 44 45 46 47 48 49 50
000
ASUS43 KBIS 041610
RWRBIS

NWR BROADCAST TEXT
NATIONAL WEATHER SERVICE BISMARCK ND
1100 AM CDT SAT JUL 04 2015

NOTE: "FAIR" INDICATES FEW OR NO CLOUDS BELOW 12,000 FEET WITH NO
SIGNIFICANT WEATHER AND/OR OBSTRUCTIONS TO VISIBILITY.


CITY           SKY/WX    TMP DP  RH WIND       PRES   REMARKS
WILLISTON      SUNNY     80  63  55 SE7       29.74F
MINOT          SUNNY     80  62  54 S10       29.76S HAZE
MINOT AFB      SUNNY     81  71  71 S10       29.74F
BISMARCK       SUNNY     78  68  71 SE8       29.81F
DICKINSON      SUNNY     78  65  63 S10       29.79S HAZE
GARRISON         N/A     76  65  68 S10       29.78F
HETTINGER ARPT SUNNY     77  65  66 SE7       29.82F
JAMESTOWN      SUNNY     80  67  64 S12       29.84F
BEACH          FAIR      82  64  54 S10       29.80S
CROSBY         FAIR      75  72  88 S7        29.74S
HARVEY         FAIR      81  66  61 S9        29.80F
HAZEN          FAIR      81  64  57 S10       29.78F
LINTON         FAIR      77  68  73 SE13      29.81F
MANDAN         FAIR      75  68  78 SE9       29.81F
OAKES            N/A     75  73  94 SE8       29.87F
STANLEY        FAIR      77  72  83 S12       29.77F
$$

CITY           SKY/WX    TMP DP  RH WIND       PRES   REMARKS
GRAND FORKS    CLOUDY    77  67  71 S10       29.83F HAZE
GRAND FORKS AF SUNNY     77  67  70 S10       29.84S HAZE
DEVILS LAKE    SUNNY     79  66  65 S12       29.81F
FARGO          SUNNY     79  67  66 SE9       29.86F HAZE
CANDO          FAIR      77  68  73 S13       29.81F HAZE
CAVALIER       FAIR      75  66  73 S13       29.81F HAZE
GRAFTON        FAIR      77  68  73 S12       29.83F HAZE
GWINNER        FAIR      79  66  65 S9        29.88F
LANGDON        FAIR      79  70  73 S13       29.83F HAZE
ROLLA            N/A     75  68  78 S13       29.81F
WALHALLA       FAIR      77  73  88 MISG      29.80F FOG
$$

CITY           SKY/WX    TMP DP  RH WIND       PRES   REMARKS
ABERDEEN       MOSUNNY   76  68  76 SE9       29.86F
MOBRIDGE       SUNNY     78  69  73 S16       29.80S
BUFFALO          N/A     79  64  60 S3        29.78F
RAPID CITY     SUNNY     79  66  64 S8        29.85S
GLASGOW        SUNNY     82  55  39 W5        29.71S
SIDNEY         SUNNY     79  61  53 S10       29.74F
WOLF POINT     SUNNY     82  61  48 CALM      29.71F HAZE
GLENDIVE       SUNNY     82  63  51 S9        29.77F
MILES CITY     SUNNY     83  64  52 SE6       29.77F
BAKER          SUNNY     81  63  54 SW6       29.82F
$$

CITY           SKY/WX    TMP DP  RH WIND       PRES   REMARKS
BILLINGS       MOSUNNY   80  55  42 SW9       29.87F
GREAT FALLS    SUNNY     74  53  48 NW17G25   29.89R
REGINA         LGT RAIN  72  63  73 N8        29.76S
$$



USA.gov is the U.S. government's official web portal to all federal, state and local government web resources and services.